Погода в Берёзово

Россия / Ханты-Мансийский автономный округ - Югра     63°56′06″N   65°03′13″E
темп.,
°C
ветер,
м/с
пор.,
м/с
влажн.,
%
обл.,
%
осадки,
мм/ч
давл.,
гПа
погр.,
м
21 апреля, ср
ср2123:00−3зсз119641 0.0 102512
02:00−1сз259496 0.0 102697
05:00−1сз249452 0.0 102875
08:00+2с139411 0.0 102895
11:00+4ююз229531 0.0 1030301
14:00+5ю249217 0.0 1030284
17:00+4ю239958 0.0 1031121
20:00+2ююз269890 0.0 1031116
22 апреля, чт
чт2223:00+1ююз3119056 0.0 1031190
02:00+1ю31192100 0.0 1031207
05:000ю3119163 0.0 1031205
08:00+3ю41189100 0.0 1031298
11:00+6ю5128632 0.0 1030421
14:00+8ю61381100 0.0 1029710
17:00+9ю6127794 0.0 1028874
20:00+6ююв61682100 0.0 1027401
23 апреля, пт
пт2323:00+6ю61683100 0.0 1026438
02:00+5ю51485100 0.0 1026395
05:00+5ю41186100 0.0 1026371
08:00+5ююз41091100 0.0 1026383
11:00+7ююз598397 0.0 1026873
14:00+9ююз4770100 0.1 1026910
17:00+8ю4975100 0.1 1027310
20:00+7ююз41184100 0.0 1027349
24 апреля, сб
сб2423:00+6ююз41092100 0.0 1027333
02:00+5юз2595100 0.0 1027131
05:00+3юз2295100 0.0 102831
08:00+6юз238596 0.0 1027216
11:00+10зюз11665 0.0 1027663
14:00+12вюв115623 0.0 10271186
17:00+11вюв236091 0.2 1026540
20:00+9вюв226957 0.1 102629
25 апреля, вс
вс2523:00+7ююз228099 0.1 102632
02:00+7вюв118299 0.0 102517
05:00+5вюв259098 0.0 1025131
08:00+7вюв358121 0.0 1024410
11:00+7юв3679100 0.1 1023768
14:00+6юв258293 0.2 1021464
17:00+7юв3673100 0.2 1020624
20:00+6ююв4686100 0.1 1019774